Location: Unspecified
(34.4950°S, 58.5160°W)
Time: 15:55:17
(UTC+00:00)

Cosmos 1655 Rocket - Pass Details

Date: 08 July 2022
Orbit: 971 x 1005 km, 83.0° (Epoch: 11 August)

Event Time Altitude Azimuth Distance (km) Brightness Sun altitude
Rises 09:36:27 0° 183° (S) 3,738 6.9 -17.0°
Reaches altitude 10° 09:39:03 10° 179° (S) 2,777 6.2 -16.4°
Maximum altitude 09:45:21 62° 98° (E) 1,104 4.5 -15.2°
Drops below altitude 10° 09:51:32 10° 17° (NNE) 2,723 6.8 -14.0°
Sets 09:54:03 0° 14° (NNE) 3,659 7.5 -13.5°
